[[[{"header":{"parameterUnit":"kt","parameterCategory":2,"dx":1,"dy":1,"la1":30.253999710083008,"la2":30.299108505249023,"lo1":-89.0895004272461,"lo2":-89.04439544677734,"nx":28,"ny":28,"refTime":"2022-10-02T21:00:00:Z","depth":0,"parameterNumber":1,"parameterNumberName":"U-component_of_WINDS"},"data":[-10.6917,-10.7139,-10.7171,-10.744,-10.7513,-10.7703,-10.778,-10.7884,-10.7974,-10.8205,-10.8343,-10.8397,-10.8499,-10.8672,-10.8823,-10.8844,-10.8906,-10.8964,-10.8978,-10.8691,-10.8653,-10.8617,-10.8565,-10.8977,-10.8977,-10.9271,-10.9273,-10.9275,-10.6709,-10.6784,-10.6935,-10.7101,-10.7231,-10.7195,-10.7325,-10.7436,-10.7606,-10.7718,-10.7855,-10.806,-10.8226,-10.8309,-10.8474,-10.858,-10.8572,-10.8623,-10.8615,-10.8632,-10.8326,-10.8271,-10.8627,-10.8627,-10.8627,-10.8627,-10.8627,-10.8627,-10.6339,-10.6471,-10.6589,-10.6752,-10.6844,-10.6956,-10.7087,-10.7149,-10.7297,-10.7471,-10.7478,-10.7671,-10.7789,-10.8,-10.8078,-10.8231,-10.8179,-10.8244,-10.826,-10.8276,-10.829,-10.7866,-10.826,-10.8259,-10.8258,-10.8257,-10.8257,0,-10.6077,-10.6094,-10.6238,-10.6394,-10.6515,-10.6638,-10.6755,-10.6837,-10.688,-10.7,-10.7176,-10.7283,-10.7494,-10.7664,-10.7823,-10.7891,-10.7864,-10.7864,-10.7909,-10.7908,-10.7889,-10.7903,-10.7404,-10.7851,-10.7848,-10.7846,-10.7844,-10.7842,-10.5706,-10.5855,-10.5992,-10.609,-10.616,-10.6319,-10.6419,-10.6444,-10.655,-10.6698,-10.6813,-10.6983,-10.712,-10.7397,-10.7466,-10.7624,-10.7612,-10.778,-10.7635,-10.763,-10.7616,-10.7606,-10.7622,-10.7807,-10.7811,-10.7815,-10.7818,0,-10.5495,-10.5541,-10.5781,-10.59,-10.5935,-10.6091,-10.6192,-10.6325,-10.6369,-10.6557,-10.6603,-10.6672,-10.6844,-10.6886,-10.709,-10.7107,-10.7368,-10.7351,-10.7328,-10.7327,-10.7483,-10.7468,-10.7978,-10.8046,-10.7619,-10.7623,-10.7627,0,-10.5196,-10.5391,-10.5448,-10.5585,-10.5803,-10.5822,-10.6037,-10.6095,-10.6194,-10.6343,-10.6317,-10.6458,-10.6488,-10.6635,-10.6659,-10.6879,-10.6917,-10.6943,-10.6947,-10.6945,-10.6942,-10.7,-10.698,-10.6949,-10.6946,-10.6944,-10.6942,0,-10.486,-10.5117,-10.534,-10.5406,-10.555,-10.5655,-10.572,-10.5829,-10.5927,-10.6059,-10.6123,-10.6276,-10.636,-10.648,-10.6509,-10.641,-10.6778,-10.6647,-10.6805,-10.6805,-10.6883,-10.6878,-10.732,-10.6938,-10.6937,-10.6937,-10.6936,0,-10.4625,-10.4757,-10.5072,-10.5192,-10.5258,-10.5404,-10.5556,-10.569,-10.5808,-10.5832,-10.5936,-10.5922,-10.6116,-10.5983,-10.6251,-10.6113,-10.6199,-10.624,-10.6252,-10.6271,-10.6121,-10.6366,-10.6783,-10.6828,-10.6291,-10.6286,-10.6281,0,-10.4229,-10.4557,-10.4574,-10.4873,-10.503,-10.4989,-10.5152,-10.5256,-10.5301,-10.5441,-10.5491,-10.565,-10.556,-10.5615,-10.5742,-10.58,-10.5979,-10.5777,-10.5981,-10.5988,-10.5952,-10.6336,-10.6387,-10.6687,-10.6213,-10.622,-10.6225,0,-10.3927,-10.4097,-10.4149,-10.4225,-10.4363,-10.4493,-10.468,-10.4841,-10.4933,-10.5051,-10.5209,-10.5433,-10.5374,-10.5465,-10.5469,-10.5599,-10.5859,-10.5518,-10.5521,-10.5579,-10.6181,-10.6229,-10.628,-10.5833,-10.5841,-10.5848,-10.6171,0,-10.3563,-10.3731,-10.3872,-10.4036,-10.4143,-10.433,-10.437,-10.4477,-10.447,-10.4511,-10.4743,-10.4836,-10.5,-10.5066,-10.5059,-10.5344,-10.5302,-10.5237,-10.5109,-10.536,-10.5468,-10.5512,-10.4946,-10.4943,-10.494,-10.4937,0,0,-10.3173,-10.3413,-10.3423,-10.3603,-10.3694,-10.3646,-10.3843,-10.3925,-10.4092,-10.4156,-10.4085,-10.4414,-10.4492,-10.4769,-10.485,-10.4916,-10.4971,-10.488,-10.524,-10.5274,-10.5305,-10.542,-10.5464,-10.4932,-10.4931,-10.493,-10.4929,0,-10.3048,-10.3127,-10.332,-10.3406,-10.3532,-10.3565,-10.3612,-10.3728,-10.3763,-10.3988,-10.3946,-10.4089,-10.4348,-10.4438,-10.4518,-10.4848,-10.4807,-10.4895,-10.506,-10.5209,-10.5247,-10.528,-10.54,-10.5442,-10.4922,-10.4922,-10.4922,0,-10.2757,-10.2842,-10.2939,-10.3139,-10.322,-10.3381,-10.3258,-10.3432,-10.3552,-10.3489,-10.3712,-10.3769,-10.3891,-10.4146,-10.4262,-10.42,-10.4657,-10.4518,-10.4538,-10.4551,-10.4697,-10.4742,-10.4782,-10.4253,-10.4251,-10.4249,0,0,-10.2643,-10.2798,-10.2894,-10.3114,-10.3169,-10.322,-10.3309,-10.3309,-10.3419,-10.3462,-10.3533,-10.3642,-10.3793,-10.3892,-10.4036,-10.431,-10.4338,-10.4434,-10.4466,-10.4491,-10.4518,-10.4671,-10.4716,-10.4239,-10.4239,-10.4239,0,0,-10.2588,-10.2708,-10.2681,-10.294,-10.3046,-10.3155,-10.3288,-10.3257,-10.3389,-10.3372,-10.3381,-10.341,-10.3649,-10.3705,-10.3575,-10.3991,-10.3865,-10.3896,-10.3945,-10.3986,-10.4017,-10.3998,-10.346,0,0,0,0,0,-10.2478,-10.2693,-10.2667,-10.2716,-10.2967,-10.317,-10.3202,-10.3214,-10.3124,-10.3231,-10.3285,-10.3234,-10.3638,-10.3523,-10.3572,-10.3716,-10.4118,-10.414,-10.416,-10.4288,-10.4329,-10.4365,0,0,0,0,0,0,-10.2497,-10.2557,-10.2661,-10.2779,-10.2835,-10.3162,-10.3013,-10.3023,-10.3113,-10.31,-10.3225,-10.3238,-10.3252,-10.3498,-10.3542,-10.3679,-10.3446,-10.4127,-10.4145,-10.4161,-10.4302,-10.4336,-10.4365,0,0,0,0,0,-10.2513,-10.2561,-10.296,-10.2776,-10.2825,-10.2893,-10.3005,-10.3012,-10.3082,-10.3166,-10.3176,-10.3083,-10.3255,-10.3293,-10.3525,-10.3659,-10.3415,-10.3432,-10.4138,-10.4153,-10.4166,-10.4319,0,0,0,0,0,0,-10.2524,-10.2569,-10.297,-10.2986,-10.2694,-10.2875,-10.2903,-10.3003,-10.3141,-10.3155,-10.3022,-10.3011,-10.3261,-10.3289,-10.3318,-10.3651,-10.3391,-10.3407,-10.3418,-10.4149,-10.4161,-10.4171,0,0,0,0,0,0,-10.2543,-10.2582,-10.2978,-10.2874,-10.2878,-10.2858,-10.2883,-10.3081,-10.3144,-10.299,-10.2985,-10.3016,-10.3216,-10.3287,-10.3309,-10.3617,-10.3372,-10.3388,-10.3399,-10.3406,-10.4159,-10.4167,0,0,0,0,0,0,-10.256,-10.2593,-10.287,-10.2873,-10.2876,-10.305,-10.3032,-10.3289,-10.3055,-10.2985,-10.3034,-10.3024,-10.3217,-10.3239,-10.3304,-10.3603,-10.3614,-10.3372,-10.3383,-10.3391,-10.3396,0,0,0,0,0,0,0,-10.2573,-10.2344,-10.2879,-10.2872,-10.2874,-10.3128,-10.3133,-10.3137,-10.3052,-10.3044,-10.3036,-10.3028,-10.3281,-10.3298,-10.3316,-10.3591,0,0,-10.3371,-10.3378,0,0,0,0,0,0,0,0,-10.233,-10.2341,-10.2879,-10.2882,-10.2885,-10.3129,-10.3132,-10.3136,-10.3051,-10.3044,-10.3038,-10.3031,-10.3286,-10.33,-10.3314,0,0,0,0,0,0,0,0,0,0,0,0,0,0,0,-10.2879,-10.2882,0,-10.3129,-10.3132,-10.3135,-10.305,-10.3045,-10.3039,-10.3034,-10.329,-10.3301,-10.3313,0,0,0,0,0,0,0,0,0,0,0,0,0,0,0,0,0,0,0,0,0,0,0,0,0,0,0,0,0,0,0,0,0,0,0,0,0,0,0,0,0,0,0,0,0,0,0,0,0,0,0,0,0,0,0,0,0,0,0,0,0,0,0,0,0,0,0,0,0]}],[{"header":{"parameterUnit":"kt","parameterCategory":2,"dx":1,"dy":1,"la1":30.253999710083008,"la2":30.299108505249023,"lo1":-89.0895004272461,"lo2":-89.04439544677734,"nx":28,"ny":28,"refTime":"2022-10-02T21:00:00:Z","depth":0,"parameterNumber":2,"parameterNumberName":"V-component_of_WINDS"},"data":[-2.6056,-2.6074,-2.6043,-2.6049,-2.6022,-2.6021,-2.6011,-2.5994,-2.5973,-2.5969,-2.5961,-2.5932,-2.59,-2.5884,-2.5874,-2.5861,-2.5859,-2.5887,-2.5868,-2.577,-2.5755,-2.574,-2.5733,-2.5887,-2.5887,-2.5972,-2.5973,-2.5974,-2.5984,-2.5957,-2.5952,-2.5926,-2.5921,-2.5875,-2.585,-2.5849,-2.585,-2.5825,-2.5816,-2.581,-2.5802,-2.576,-2.5747,-2.5754,-2.5732,-2.5753,-2.5752,-2.5747,-2.5642,-2.5635,-2.5771,-2.5771,-2.5771,-2.5771,-2.5771,-2.5771,-2.5844,-2.5857,-2.5822,-2.5816,-2.5795,-2.5778,-2.5784,-2.5749,-2.5744,-2.5726,-2.5691,-2.5692,-2.5662,-2.5633,-2.5616,-2.5615,-2.5587,-2.5601,-2.5604,-2.5608,-2.5616,-2.5494,-2.5612,-2.5612,-2.5611,-2.5611,-2.561,0,-2.5732,-2.5705,-2.5698,-2.5682,-2.5676,-2.5661,-2.5642,-2.5646,-2.558,-2.5579,-2.5575,-2.5567,-2.5553,-2.5546,-2.5528,-2.5507,-2.5461,-2.5454,-2.5462,-2.5478,-2.5494,-2.5485,-2.5314,-2.5451,-2.5449,-2.5448,-2.5447,-2.5447,-2.5588,-2.5607,-2.5557,-2.5556,-2.5538,-2.5539,-2.5533,-2.5474,-2.547,-2.5439,-2.5453,-2.5445,-2.5436,-2.5436,-2.5396,-2.5386,-2.5363,-2.5418,-2.5362,-2.5376,-2.5363,-2.5362,-2.5363,-2.5431,-2.5433,-2.5434,-2.5436,0,-2.5509,-2.5459,-2.5479,-2.5428,-2.5416,-2.5439,-2.5396,-2.5406,-2.5371,-2.5381,-2.538,-2.5326,-2.5323,-2.5274,-2.5263,-2.5237,-2.5273,-2.5252,-2.5282,-2.5275,-2.5319,-2.5315,-2.547,-2.5487,-2.5328,-2.533,-2.5331,0,-2.5366,-2.5394,-2.5317,-2.5332,-2.536,-2.5299,-2.5329,-2.5302,-2.5275,-2.5283,-2.5221,-2.523,-2.5165,-2.5167,-2.5129,-2.515,-2.5149,-2.513,-2.512,-2.5135,-2.5138,-2.5133,-2.5126,-2.5097,-2.5096,-2.5096,-2.5095,0,-2.5248,-2.5241,-2.5263,-2.5254,-2.5203,-2.5216,-2.5196,-2.5166,-2.5161,-2.5147,-2.5144,-2.5133,-2.5127,-2.512,-2.5071,-2.5034,-2.5097,-2.5036,-2.5077,-2.5079,-2.5094,-2.5094,-2.5244,-2.5094,-2.5094,-2.5094,-2.5093,0,-2.5125,-2.5112,-2.5153,-2.5109,-2.511,-2.5126,-2.5109,-2.5111,-2.5085,-2.5061,-2.5051,-2.5004,-2.502,-2.4963,-2.4983,-2.4948,-2.4946,-2.493,-2.4932,-2.493,-2.4868,-2.4958,-2.5107,-2.512,-2.4928,-2.4927,-2.4926,0,-2.5003,-2.5031,-2.4979,-2.5021,-2.5027,-2.4956,-2.4973,-2.4951,-2.4921,-2.4923,-2.489,-2.4893,-2.484,-2.4834,-2.4851,-2.4818,-2.4863,-2.481,-2.4813,-2.4814,-2.4821,-2.4957,-2.4991,-2.5079,-2.4907,-2.4909,-2.4911,0,-2.4902,-2.4841,-2.4852,-2.4838,-2.4799,-2.4805,-2.4825,-2.4814,-2.4817,-2.4801,-2.4815,-2.4819,-2.4778,-2.477,-2.4732,-2.4752,-2.4831,-2.4707,-2.4705,-2.473,-2.4895,-2.4926,-2.4942,-2.4801,-2.4803,-2.4804,-2.4896,0,-2.4725,-2.4734,-2.4762,-2.4735,-2.4732,-2.4756,-2.4703,-2.4706,-2.4668,-2.4637,-2.4658,-2.463,-2.4621,-2.4626,-2.4591,-2.4652,-2.4634,-2.4592,-2.4534,-2.4624,-2.4652,-2.4664,-2.4494,-2.4492,-2.4491,-2.4489,0,0,-2.462,-2.4631,-2.4575,-2.4591,-2.4585,-2.4512,-2.4542,-2.4528,-2.4502,-2.4499,-2.4465,-2.4468,-2.4447,-2.4479,-2.4503,-2.45,-2.4506,-2.4478,-2.4581,-2.4592,-2.4601,-2.4633,-2.4647,-2.4486,-2.4486,-2.4485,-2.4485,0,-2.4544,-2.4522,-2.4553,-2.4535,-2.4506,-2.4471,-2.4479,-2.4439,-2.442,-2.4442,-2.4382,-2.4389,-2.4395,-2.4379,-2.4372,-2.4472,-2.4428,-2.4473,-2.4544,-2.4566,-2.4579,-2.459,-2.4624,-2.4637,-2.448,-2.4481,-2.4481,0,-2.4434,-2.4404,-2.4413,-2.4396,-2.4377,-2.4387,-2.4311,-2.4326,-2.4332,-2.4254,-2.4277,-2.4255,-2.4231,-2.4269,-2.4284,-2.4255,-2.4359,-2.4318,-2.4327,-2.4328,-2.4347,-2.4363,-2.4377,-2.4196,-2.4195,-2.4194,0,0,-2.4376,-2.4385,-2.4334,-2.4376,-2.4368,-2.4317,-2.4317,-2.428,-2.4259,-2.4251,-2.4222,-2.4205,-2.4206,-2.4209,-2.4208,-2.4258,-2.4248,-2.4285,-2.4298,-2.4309,-2.4316,-2.4339,-2.4354,-2.4191,-2.4191,-2.4191,0,0,-2.4349,-2.4292,-2.4257,-2.4299,-2.428,-2.4235,-2.4262,-2.4219,-2.4213,-2.4205,-2.4144,-2.4137,-2.4172,-2.4154,-2.4119,-2.4187,-2.413,-2.4137,-2.4198,-2.4214,-2.4227,-2.4231,-2.404,0,0,0,0,0,-2.4244,-2.4298,-2.4268,-2.4267,-2.4246,-2.4251,-2.4248,-2.4199,-2.4158,-2.4181,-2.4149,-2.4102,-2.4122,-2.409,-2.4091,-2.413,-2.4153,-2.4159,-2.4166,-2.4256,-2.4273,-2.4288,0,0,0,0,0,0,-2.4244,-2.4243,-2.4266,-2.4224,-2.4218,-2.4249,-2.417,-2.4157,-2.4155,-2.4145,-2.411,-2.4101,-2.406,-2.4087,-2.4088,-2.4126,-2.4039,-2.4155,-2.4161,-2.4166,-2.4262,-2.4276,-2.4288,0,0,0,0,0,-2.4243,-2.4242,-2.4222,-2.4222,-2.4218,-2.4164,-2.4167,-2.4156,-2.4153,-2.4105,-2.4095,-2.4116,-2.4062,-2.406,-2.4087,-2.4127,-2.4038,-2.4038,-2.4159,-2.4164,-2.4168,-2.4269,0,0,0,0,0,0,-2.4242,-2.4232,-2.422,-2.4217,-2.4198,-2.4162,-2.4154,-2.4156,-2.4113,-2.4103,-2.4109,-2.4102,-2.4065,-2.4062,-2.4061,-2.4129,-2.4037,-2.4037,-2.4038,-2.4163,-2.4166,-2.4169,0,0,0,0,0,0,-2.4232,-2.423,-2.4218,-2.4191,-2.4184,-2.416,-2.4153,-2.417,-2.4113,-2.4118,-2.4111,-2.4106,-2.4067,-2.4065,-2.4063,-2.4091,-2.4036,-2.4037,-2.4037,-2.4037,-2.4165,-2.4168,0,0,0,0,0,0,-2.4231,-2.4229,-2.4191,-2.4186,-2.418,-2.414,-2.4173,-2.4156,-2.4088,-2.4122,-2.4081,-2.4078,-2.4071,-2.4068,-2.4065,-2.4094,-2.4092,-2.4036,-2.4036,-2.4037,-2.4037,0,0,0,0,0,0,0,-2.4229,-2.4254,-2.4239,-2.4182,-2.4176,-2.4187,-2.4186,-2.4185,-2.4088,-2.4085,-2.4082,-2.4079,-2.4032,-2.4033,-2.4034,-2.4096,0,0,-2.4036,-2.4036,0,0,0,0,0,0,0,0,-2.4253,-2.4254,-2.4239,-2.4238,-2.4237,-2.4187,-2.4186,-2.4185,-2.4087,-2.4085,-2.4083,-2.408,-2.4032,-2.4033,-2.4033,0,0,0,0,0,0,0,0,0,0,0,0,0,0,0,-2.4238,-2.4238,0,-2.4187,-2.4186,-2.4186,-2.4087,-2.4085,-2.4083,-2.4081,-2.4032,-2.4033,-2.4033,0,0,0,0,0,0,0,0,0,0,0,0,0,0,0,0,0,0,0,0,0,0,0,0,0,0,0,0,0,0,0,0,0,0,0,0,0,0,0,0,0,0,0,0,0,0,0,0,0,0,0,0,0,0,0,0,0,0,0,0,0,0,0,0,0,0,0,0,0]}]]]